Вернуться в каталог

IRIDIUM 33 DEB

АктивенPO
NORAD 35631·DEBRIS·🇺🇸 United States

Запущен Sep 14, 1997 с Baikonur Cosmodrome

Loading…

Ближайшие Пролёты (ближайшие 24 часа)

TLE

СвежийSource: Space-Track

Эпоха: Sep 14, 2026, 11:33 UTC

1 35631U 97051RD  26257.48135058  .00000568  00000-0  14789-3 0  9997
2 35631  86.3601 262.1688 0014396 283.7828 228.2510 14.47897538911869

Отслеживайте IRIDIUM 33 DEB в реальном времени с AllMySat

Download on the App Store